Torna al catalogo

COSMOS 1325

AttivoMilitareLEO
NORAD 12980·PAYLOAD·🇷🇺 Russia

Lanciato Nov 28, 1981 da Plesetsk Cosmodrome

Loading…

Prossimi Passaggi (prossime 24 ore)

TLE

AggiornatoSource: Space-Track

Epoca: Sep 14, 2026, 08:36 UTC

1 12980U 81116F   26257.35852556 -.00000022  00000-0 -63447-4 0  9992
2 12980  73.9804 223.9017 0084745  55.5330  96.9268 12.30137572 11537

Traccia COSMOS 1325 in tempo reale con AllMySat

Download on the App Store